EW2337 Weather Reports


time (UTC)temp
F
wind
direction
speed
knots
gust
knots
rain 1hr
in
rain 24hr
in
rain mn
in
humidity
%
barometer
mb
20260508025003 56 248 2.6 7.8 0.00 0.07 0.07 73 1012.0
20260508024524 56 247 2.6 6.1 0.00 0.07 0.07 73 1012.0
20260508024003 56 247 2.6 7.8 0.00 0.07 0.07 72 1012.0
20260508023524 56 248 2.6 7.8 0.00 0.07 0.07 72 1011.8
20260508023003 56 251 3.5 8.7 0.00 0.07 0.07 71 1011.8
20260508022503 57 247 5.2 13.9 0.00 0.07 0.07 69 1011.9
20260508022024 57 246 6.1 13.9 0.00 0.07 0.07 69 1011.9
20260508021503 57 248 5.2 13.9 0.00 0.07 0.07 68 1011.7
20260508021003 56 249 1.7 8.7 0.00 0.07 0.07 66 1012.0
20260508020503 53 245 0.0 3.5 0.00 0.07 0.07 69 1011.8
20260508020003 53 0 0.0 0.0 0.00 0.07 0.07 70 1011.5
20260508015503 53 0 0.0 0.0 0.00 0.07 0.07 69 1011.5
20260508015024 53 0 0.0 0.0 0.00 0.07 0.07 69 1011.5
20260508014524 53 0 0.0 0.0 0.00 0.07 0.07 68 1011.6
20260508014024 53 0 0.0 0.0 0.00 0.07 0.07 68 1011.5
20260508013503 53 0 0.0 0.0 0.00 0.07 0.07 67 1011.3
20260508013003 53 0 0.0 0.0 0.00 0.07 0.07 67 1011.2
20260508012503 54 0 0.0 0.0 0.00 0.07 0.07 65 1011.2
20260508012003 54 257 0.0 1.7 0.00 0.07 0.07 65 1011.2
20260508011524 54 258 0.0 1.7 0.00 0.07 0.07 64 1011.2
20260508011003 54 261 0.0 0.9 0.00 0.07 0.07 64 1011.0
20260508010503 55 0 0.0 0.0 0.00 0.07 0.07 65 1010.9
20260508010003 55 0 0.0 0.0 0.00 0.07 0.07 64 1011.1
20260508005503 55 0 0.0 0.0 0.00 0.07 0.07 62 1011.0
20260508005003 55 0 0.0 0.0 0.00 0.07 0.07 62 1010.9
20260508004503 56 0 0.0 0.0 0.00 0.07 0.07 61 1010.9
20260508004024 56 0 0.0 0.0 0.00 0.07 0.07 61 1011.1
20260508003503 56 0 0.0 0.0 0.00 0.07 0.07 58 1010.7
20260508003003 56 0 0.0 0.0 0.00 0.07 0.07 58 1010.8
20260508002503 57 0 0.0 0.0 0.00 0.07 0.07 58 1010.7
20260508002003 57 0 0.0 0.0 0.00 0.07 0.07 57 1010.7
20260508001503 57 0 0.0 0.0 0.00 0.07 0.07 57 1010.7
20260508001003 58 0 0.0 0.0 0.00 0.07 0.07 57 1010.6
20260508000503 58 0 0.0 0.0 0.00 0.07 0.07 56 1010.8
20260508000003 58 0 0.0 0.0 0.00 0.07 0.07 55 1010.5
20260507235503 59 0 0.0 0.0 0.00 0.07 0.07 55 1010.5
20260507235003 59 0 0.0 0.0 0.00 0.07 0.07 52 1010.6
20260507234503 60 0 0.0 0.0 0.00 0.07 0.07 49 1010.3
20260507234024 60 0 0.0 0.0 0.00 0.07 0.07 48 1010.4
20260507233503 60 0 0.0 0.0 0.00 0.07 0.07 47 1010.4
20260507233003 61 0 0.0 0.0 0.00 0.07 0.07 46 1010.3
20260507232503 61 0 0.0 0.0 0.00 0.07 0.07 45 1010.4
20260507232024 62 0 0.0 0.0 0.00 0.07 0.07 45 1010.4
20260507231503 62 0 0.0 0.0 0.00 0.07 0.07 45 1010.2
20260507231003 62 0 0.0 0.0 0.00 0.07 0.07 45 1010.3
20260507230503 63 241 0.0 2.6 0.00 0.07 0.07 45 1010.2
20260507230024 63 247 0.9 2.6 0.00 0.07 0.07 43 1010.3
20260507225503 64 247 0.9 2.6 0.00 0.07 0.07 42 1010.1
20260507225024 64 248 0.9 2.6 0.00 0.07 0.07 43 1010.2
20260507224503 64 250 0.9 2.6 0.00 0.07 0.07 41 1010.1
20260507224003 64 249 0.0 1.7 0.00 0.07 0.07 43 1010.1
20260507223503 64 248 0.9 2.6 0.00 0.07 0.07 41 1010.2
20260507223003 64 249 0.9 2.6 0.00 0.07 0.07 39 1009.9
20260507222503 65 250 0.0 2.6 0.00 0.07 0.07 41 1009.8
20260507222003 65 250 0.0 2.6 0.00 0.07 0.07 40 1009.9
20260507221503 65 251 0.9 3.5 0.00 0.07 0.07 43 1010.0
20260507221003 66 250 0.9 3.5 0.00 0.07 0.07 38 1010.1
20260507220503 68 245 1.7 6.1 0.00 0.07 0.07 37 1010.1
20260507220003 67 242 0.9 6.1 0.00 0.07 0.07 40 1009.9
20260507215503 67 254 0.0 2.6 0.00 0.07 0.07 41 1010.2
20260507215024 66 250 0.9 6.1 0.00 0.07 0.07 42 1010.1
20260507214503 68 248 0.9 6.1 0.00 0.07 0.07 36 1010.2
20260507214003 69 251 0.0 2.6 0.00 0.07 0.07 37 1010.2
20260507213503 68 255 0.9 5.2 0.00 0.07 0.07 39 1010.3
20260507213003 68 252 1.7 7.0 0.00 0.07 0.07 39 1010.3
20260507212503 67 251 1.7 7.0 0.00 0.07 0.07 36 1010.4
20260507212003 67 249 0.9 6.1 0.00 0.07 0.07 38 1010.4
20260507211503 67 249 1.7 6.1 0.00 0.07 0.07 36 1010.2
20260507211024 67 246 0.9 3.5 0.00 0.07 0.07 40 1010.1
20260507210524 68 231 1.7 5.2 0.00 0.07 0.07 37 1010.1
20260507210003 67 232 3.5 9.6 0.00 0.07 0.07 38 1010.2
20260507205503 66 238 3.5 9.6 0.00 0.07 0.07 38 1010.2
20260507205003 67 246 2.6 7.0 0.00 0.07 0.07 37 1010.0
20260507204503 68 250 1.7 7.0 0.00 0.07 0.07 37 1009.9
20260507204024 68 246 2.6 7.8 0.00 0.07 0.07 36 1010.0
20260507203503 66 246 1.7 7.8 0.00 0.07 0.07 39 1010.0
20260507203003 67 248 1.7 6.1 0.00 0.07 0.07 39 1010.0
20260507202503 68 246 1.7 6.1 0.00 0.07 0.07 38 1009.8
20260507202003 67 247 2.6 7.8 0.00 0.07 0.07 37 1009.9
20260507201524 67 247 2.6 8.7 0.00 0.07 0.07 39 1010.0
20260507201003 67 250 2.6 8.7 0.00 0.07 0.07 39 1010.0
20260507200503 67 251 1.7 6.1 0.00 0.07 0.07 39 1010.1
20260507200003 66 247 0.9 7.0 0.00 0.07 0.07 42 1010.2
20260507195503 67 240 0.9 7.0 0.00 0.07 0.07 40 1010.2
20260507195003 66 226 0.9 3.5 0.00 0.07 0.07 39 1010.2
20260507194503 65 229 0.9 3.5 0.00 0.07 0.07 49 1010.2
20260507194003 65 276 0.9 2.6 0.00 0.07 0.07 42 1010.2
20260507193503 64 263 0.9 7.0 0.00 0.07 0.07 49 1010.6
20260507193003 65 244 1.7 7.0 0.00 0.07 0.07 48 1010.6
20260507192503 67 249 1.7 3.5 0.00 0.07 0.07 42 1010.5
20260507192024 67 252 1.7 3.5 0.00 0.07 0.07 41 1010.5
20260507191524 67 253 0.9 3.5 0.00 0.07 0.07 44 1010.8
20260507191024 65 261 0.0 1.7 0.00 0.07 0.07 44 1010.7
20260507190503 65 260 0.9 3.5 0.00 0.07 0.07 49 1010.9
20260507190004 65 264 0.9 3.5 0.00 0.07 0.07 43 1010.9
20260507185503 65 257 0.9 3.5 0.00 0.07 0.07 47 1011.1
20260507185003 67 250 1.7 7.0 0.00 0.07 0.07 47 1010.9
20260507184503 66 248 2.6 7.0 0.00 0.07 0.07 44 1011.1
20260507184003 67 244 1.7 5.2 0.00 0.07 0.07 43 1011.2
20260507183503 66 255 0.9 3.5 0.00 0.07 0.07 43 1011.5
20260507183003 65 246 0.9 3.5 0.00 0.07 0.07 42 1011.4
20260507182503 65 235 1.7 6.1 0.00 0.07 0.07 46 1011.3
20260507182003 65 244 1.7 6.1 0.00 0.07 0.07 44 1011.3
20260507181524 64 242 1.7 7.0 0.00 0.07 0.07 44 1011.1
20260507181024 65 251 1.7 7.0 0.00 0.07 0.07 45 1011.3
20260507180503 65 256 0.9 7.0 0.00 0.07 0.07 48 1011.1
20260507180024 64 283 0.9 7.0 0.00 0.07 0.07 47 1011.4
20260507175503 62 37 0.9 2.6 0.00 0.07 0.07 54 1011.6
20260507175003 62 68 0.9 3.5 0.00 0.07 0.07 50 1011.5
20260507174503 63 94 0.9 3.5 0.00 0.07 0.07 47 1011.6
20260507174003 64 278 0.9 1.7 0.00 0.07 0.07 49 1012.0
20260507173503 63 206 0.9 6.1 0.00 0.07 0.07 49 1011.9
20260507173003 63 224 1.7 6.1 0.00 0.07 0.07 45 1011.9
20260507172503 65 269 0.9 3.5 0.00 0.07 0.07 49 1011.9
20260507172003 65 257 0.0 0.9 0.00 0.07 0.07 47 1012.1
20260507171503 63 228 0.9 3.5 0.00 0.07 0.07 50 1012.3
20260507171003 63 219 0.9 3.5 0.00 0.07 0.07 49 1012.5
20260507170503 63 357 0.9 3.5 0.00 0.07 0.07 47 1012.3
20260507170003 63 273 0.9 2.6 0.00 0.07 0.07 48 1012.6
20260507165503 63 250 0.9 5.2 0.00 0.07 0.07 45 1012.5
20260507165003 63 253 0.9 5.2 0.00 0.07 0.07 54 1012.5
20260507164503 63 8 0.9 5.2 0.00 0.07 0.07 50 1012.7
20260507164024 61 17 0.9 5.2 0.00 0.07 0.07 49 1012.9
20260507163503 61 248 0.9 3.5 0.00 0.07 0.07 58 1012.6
20260507163003 62 243 0.9 3.5 0.00 0.07 0.07 54 1012.8
20260507162524 60 55 0.9 2.6 0.00 0.07 0.07 54 1013.0
20260507162003 60 25 0.0 1.7 0.00 0.07 0.07 58 1013.0
20260507161913 60 277 0.9 1.7 0.00 0.07 0.07 57 1012.3
20260507161503 59 261 0.9 5.2 0.00 0.08 0.07 56 1013.1
20260507161408 60 277 0.9 1.7 0.00 0.07 0.07 57 1012.3
20260507161003 60 244 0.9 5.2 0.00 0.08 0.07 56 1013.1
20260507160906 60 238 0.0 0.9 0.00 0.07 0.07 57 1012.4
20260507160503 59 242 0.9 5.2 0.00 0.09 0.07 57 1013.3
20260507160401 59 246 0.0 4.3 0.00 0.07 0.07 57 1012.3
20260507160003 58 256 0.0 3.5 0.00 0.09 0.07 59 1013.3
20260507155858 58 242 0.0 0.9 0.00 0.07 0.07 62 1012.3
20260507155503 58 32 0.0 2.6 0.00 0.09 0.07 63 1013.2
20260507155353 57 274 0.0 0.0 0.00 0.07 0.07 62 1012.6
20260507155003 59 344 0.9 3.5 0.00 0.09 0.07 59 1013.4
20260507154850 60 48 0.9 2.6 0.00 0.07 0.07 60 1012.5
20260507154503 59 318 0.9 3.5 0.00 0.10 0.07 60 1013.5
20260507154348 59 251 0.9 1.7 0.00 0.07 0.07 63 1012.4
20260507154003 59 360 0.0 1.7 0.00 0.10 0.07 65 1013.6
20260507153845 59 50 0.9 1.7 0.00 0.07 0.07 64 1012.6
20260507153504 59 49 0.0 1.7 0.00 0.11 0.07 62 1013.5
20260507153341 59 317 0.0 1.7 0.00 0.07 0.07 64 1012.8
20260507153024 58 259 0.9 5.2 0.00 0.11 0.07 63 1013.5
20260507152838 59 77 0.0 1.7 0.00 0.07 0.07 64 1012.6
20260507152503 59 247 0.9 5.2 0.00 0.12 0.07 60 1013.4
20260507152334 59 248 0.0 0.9 0.00 0.07 0.07 63 1012.9
20260507152004 58 258 0.0 1.7 0.00 0.12 0.07 64 1013.7
20260507151830 58 37 0.9 1.7 0.00 0.07 0.07 65 1012.9
20260507151503 58 246 0.9 2.6 0.00 0.12 0.07 62 1013.8
20260507151326 57 199 0.0 0.9 0.00 0.07 0.07 66 1013.1
20260507151003 58 251 0.9 2.6 0.00 0.13 0.07 67 1013.8
20260507150824 57 236 0.0 2.6 0.00 0.07 0.07 64 1012.8
20260507150503 57 354 0.0 1.7 0.00 0.13 0.07 65 1014.1
20260507150320 57 88 1.7 1.7 0.00 0.07 0.07 65 1013.0
20260507150024 57 291 0.0 3.5 0.00 0.13 0.07 65 1014.2
20260507145816 57 282 0.0 0.9 0.00 0.07 0.07 65 1013.5
20260507145503 57 275 0.9 3.5 0.00 0.13 0.07 65 1013.9
20260507145313 56 239 0.9 4.3 0.00 0.07 0.07 63 1013.0
20260507145003 56 274 0.9 2.6 0.00 0.13 0.07 65 1014.1
20260507144810 57 258 0.0 2.6 0.00 0.07 0.07 67 1013.2
20260507144503 57 252 0.9 5.2 0.00 0.13 0.07 66 1014.2
20260507144308 57 275 0.9 1.7 0.00 0.07 0.07 69 1013.3
20260507144003 57 248 0.9 5.2 0.00 0.13 0.07 67 1014.2
20260507143804 57 235 3.5 5.2 0.00 0.07 0.07 64 1013.3
20260507143503 57 251 0.9 2.6 0.00 0.13 0.07 66 1014.2
20260507143301 57 213 0.9 0.9 0.00 0.07 0.07 67 1013.5
20260507143003 57 245 0.9 3.5 0.00 0.13 0.07 67 1014.1
20260507142757 57 263 0.0 0.9 0.00 0.07 0.07 69 1013.5
20260507142503 57 248 0.9 5.2 0.00 0.13 0.07 71 1014.3
20260507142254 57 259 0.9 4.3 0.00 0.07 0.07 68 1013.4
20260507142003 56 251 1.7 5.2 0.00 0.13 0.07 71 1014.2
20260507141750 56 250 2.6 5.2 0.00 0.07 0.07 68 1013.4
20260507141503 56 250 1.7 5.2 0.00 0.13 0.07 69 1014.2
20260507141248 56 247 3.5 5.2 0.00 0.07 0.07 69 1013.3
20260507141003 56 251 0.9 5.2 0.00 0.13 0.07 69 1014.2
20260507140743 56 214 0.0 0.9 0.00 0.07 0.07 70 1013.5
20260507140503 56 246 0.9 5.2 0.00 0.13 0.07 69 1014.2
20260507140241 56 151 0.9 0.9 0.00 0.07 0.07 71 1013.3
20260507140004 56 245 0.9 5.2 0.00 0.13 0.07 70 1014.4
20260507135738 55 278 0.9 1.7 0.00 0.07 0.07 71 1013.7
20260507135503 55 252 0.9 3.5 0.00 0.13 0.07 72 1014.3
20260507135235 55 243 0.0 0.9 0.00 0.07 0.07 74 1013.5
20260507135003 55 247 0.9 2.6 0.00 0.13 0.07 72 1014.4
20260507134731 55 307 0.0 0.9 0.00 0.07 0.07 75 1013.6
20260507134503 55 245 0.9 6.1 0.00 0.13 0.07 73 1014.7
20260507134228 55 225 0.0 1.7 0.00 0.07 0.07 72 1013.6
20260507134003 54 249 1.7 6.1 0.00 0.13 0.07 72 1014.6
20260507133724 55 300 0.9 6.1 0.00 0.07 0.07 72 1013.7
20260507133503 54 248 1.7 5.2 0.00 0.13 0.07 74 1014.6
20260507133221 55 243 2.6 4.3 0.00 0.07 0.07 76 1013.4
20260507133024 54 248 0.9 5.2 0.00 0.13 0.07 78 1014.8
20260507132718 55 233 0.0 4.3 0.00 0.07 0.07 80 1013.5
20260507132503 55 244 0.9 3.5 0.00 0.13 0.07 81 1014.5
20260507132215 55 254 0.0 1.7 0.00 0.07 0.07 81 1013.5
20260507132026 54 242 0.0 2.6 0.00 0.13 0.07 82 1014.4
20260507131712 55 250 0.0 0.9 0.00 0.07 0.07 82 1013.7
20260507131503 54 252 0.9 3.5 0.00 0.13 0.07 81 1014.3
20260507131209 54 253 0.0 0.9 0.00 0.07 0.07 82 1013.5
20260507131024 54 257 1.7 3.5 0.00 0.13 0.07 81 1014.3
20260507130706 53 297 1.7 2.6 0.00 0.07 0.07 82 1013.5
20260507130504 53 259 1.7 3.5 0.00 0.13 0.07 82 1014.3
20260507130203 53 276 2.6 4.3 0.00 0.07 0.07 83 1013.7
20260507130003 53 258 0.9 7.0 0.00 0.13 0.07 83 1014.6
20260507125702 53 277 2.6 4.3 0.00 0.07 0.07 84 1013.4
20260507125503 53 256 0.9 7.0 0.00 0.13 0.07 85 1014.7
20260507125159 53 248 0.0 2.6 0.00 0.07 0.07 86 1013.6
20260507125004 53 249 0.9 5.2 0.00 0.13 0.07 86 1014.6
20260507124655 53 249 3.5 5.2 0.00 0.07 0.07 86 1013.6
20260507124504 53 250 0.9 5.2 0.00 0.13 0.07 87 1014.5
20260507124153 53 247 0.9 2.6 0.00 0.07 0.07 88 1013.6
20260507124025 53 250 1.7 5.2 0.00 0.13 0.07 88 1014.5
20260507123651 53 244 1.7 1.7 0.00 0.07 0.07 88 1013.6
20260507123503 53 249 0.9 5.2 0.00 0.13 0.07 89 1014.4
20260507123143 53 258 0.9 1.7 0.00 0.07 0.07 89 1013.4
20260507123003 52 247 0.9 3.5 0.00 0.13 0.07 89 1014.3
20260507122638 52 243 0.9 2.6 0.00 0.07 0.07 90 1013.5
20260507122504 52 248 0.9 3.5 0.00 0.13 0.07 90 1014.5
20260507122134 52 256 0.9 1.7 0.00 0.07 0.07 90 1013.5
20260507122024 52 253 0.0 1.7 0.00 0.13 0.07 90 1014.2
20260507121630 52 248 0.0 0.0 0.00 0.07 0.07 90 1013.6
20260507121504 52 247 0.0 2.6 0.00 0.13 0.07 90 1014.2
20260507121126 52 251 0.0 1.7 0.00 0.07 0.07 90 1013.6
20260507121003 52 247 0.9 2.6 0.00 0.13 0.07 90 1014.4
20260507120622 52 247 0.0 0.9 0.00 0.07 0.07 90 1013.3
20260507120503 52 250 0.0 0.9 0.00 0.13 0.07 90 1014.3
20260507120118 52 265 0.0 0.0 0.00 0.07 0.07 90 1013.1
20260507120024 52 247 0.0 0.9 0.00 0.13 0.07 90 1014.0
20260507115615 52 251 0.0 0.9 0.00 0.07 0.07 90 1013.3
20260507115503 52 248 0.0 1.7 0.00 0.13 0.07 90 1014.0
20260507115110 52 241 0.0 1.7 0.00 0.07 0.07 90 1013.3
20260507115003 52 252 0.0 1.7 0.00 0.13 0.07 90 1014.3
20260507114606 52 254 0.0 0.0 0.00 0.07 0.07 90 1013.0
20260507114504 52 254 0.0 0.9 0.00 0.13 0.07 90 1013.9
20260507114104 52 252 0.0 0.0 0.00 0.07 0.07 91 1013.1
20260507114003 52 248 0.0 1.7 0.00 0.13 0.07 91 1013.9
20260507113600 52 254 0.0 0.9 0.00 0.07 0.07 91 1013.4
20260507113504 52 247 0.9 1.7 0.00 0.13 0.07 91 1014.1
20260507113058 52 243 0.9 1.7 0.00 0.07 0.07 91 1013.3
20260507113004 52 246 0.9 1.7 0.00 0.13 0.07 91 1014.1
20260507112556 52 248 1.7 1.7 0.00 0.07 0.07 91 1013.2
20260507112503 52 247 0.9 1.7 0.00 0.13 0.07 91 1014.0
20260507112052 52 259 0.9 1.7 0.00 0.07 0.07 91 1013.1
20260507112024 52 247 0.9 1.7 0.00 0.13 0.07 91 1014.0
20260507111549 52 261 0.0 1.7 0.00 0.07 0.07 91 1013.2
20260507111503 52 245 0.9 3.5 0.00 0.13 0.07 91 1013.9
20260507111046 52 237 0.9 1.7 0.00 0.07 0.07 91 1013.1
20260507111003 52 245 0.9 3.5 0.00 0.13 0.07 91 1014.0
20260507110542 52 237 1.7 1.7 0.00 0.07 0.07 91 1013.1
20260507110503 52 242 0.9 1.7 0.00 0.13 0.07 91 1013.9
20260507110039 52 246 0.9 1.7 0.00 0.07 0.07 91 1012.8
20260507110003 52 250 0.0 1.7 0.00 0.13 0.07 91 1013.9
20260507105536 52 255 0.0 1.7 0.00 0.07 0.07 91 1013.0
20260507105524 52 251 0.0 1.7 0.00 0.13 0.07 91 1013.7
20260507105032 52 253 0.0 1.7 0.00 0.07 0.07 91 1012.8
20260507105024 52 249 0.0 1.7 0.00 0.13 0.07 91 1013.7
20260507104530 51 253 0.0 0.0 0.00 0.07 0.07 91 1012.8
20260507104503 51 251 0.0 1.7 0.00 0.13 0.07 91 1013.7
20260507104026 51 241 0.0 0.0 0.00 0.07 0.07 91 1012.6
20260507104003 51 255 0.0 0.9 0.00 0.13 0.07 91 1013.4
20260507103524 51 0 0.0 0.0 0.00 0.13 0.07 91 1013.5
20260507103522 51 253 0.0 0.0 0.00 0.07 0.07 91 1012.5
20260507103019 51 260 0.0 0.0 0.00 0.07 0.07 91 1012.5
20260507103003 51 0 0.0 0.0 0.00 0.13 0.07 91 1013.3
20260507102515 51 251 0.0 0.0 0.00 0.07 0.07 91 1012.6
20260507102503 51 0 0.0 0.0 0.00 0.13 0.07 91 1013.4
20260507102011 51 252 0.0 0.0 0.00 0.07 0.07 91 1012.5
20260507102003 51 0 0.0 0.0 0.00 0.13 0.07 91 1013.4
20260507101524 51 0 0.0 0.0 0.00 0.13 0.07 91 1013.5
20260507101507 51 247 0.0 0.0 0.00 0.07 0.07 91 1012.5
20260507101004 51 253 0.0 0.0 0.00 0.07 0.07 91 1012.4
20260507100503 51 0 0.0 0.0 0.00 0.13 0.07 91 1013.0
20260507100501 51 252 0.0 0.0 0.00 0.07 0.07 91 1012.2
20260507100003 51 0 0.0 0.0 0.00 0.13 0.07 91 1013.0
20260507095959 51 251 0.0 0.0 0.00 0.07 0.07 91 1012.4
20260507095503 51 0 0.0 0.0 0.00 0.13 0.07 91 1013.2
20260507095457 51 247 0.0 0.0 0.00 0.07 0.07 91 1012.4
20260507095024 51 0 0.0 0.0 0.00 0.13 0.07 91 1013.5
20260507094953 51 248 0.0 0.0 0.00 0.07 0.07 91 1012.5
20260507094503 51 0 0.0 0.0 0.00 0.13 0.07 91 1013.3
20260507094449 51 260 0.0 0.0 0.00 0.07 0.07 91 1012.3
20260507094003 51 0 0.0 0.0 0.00 0.13 0.07 91 1013.3
20260507093947 51 245 0.0 0.0 0.00 0.07 0.07 91 1012.5
20260507093503 50 0 0.0 0.0 0.00 0.13 0.07 90 1013.0
20260507093444 50 252 0.0 0.0 0.00 0.07 0.07 90 1012.1
20260507093003 51 0 0.0 0.0 0.00 0.13 0.07 90 1012.9
20260507092943 51 251 0.0 0.0 0.00 0.07 0.07 90 1012.2
20260507092524 51 0 0.0 0.0 0.00 0.13 0.07 90 1013.0
20260507092438 51 266 0.0 0.0 0.00 0.07 0.07 90 1011.9
20260507092003 51 267 0.0 0.9 0.00 0.13 0.07 90 1012.8
20260507091935 51 320 0.0 0.0 0.00 0.07 0.07 90 1012.3
20260507091503 50 286 0.0 1.7 0.00 0.13 0.07 90 1013.0
20260507091432 50 252 0.0 0.0 0.00 0.07 0.07 90 1012.0
20260507091024 51 286 0.0 1.7 0.00 0.13 0.07 90 1013.0
20260507090928 51 272 0.0 0.0 0.00 0.07 0.07 90 1012.2
20260507090503 51 343 0.0 0.9 0.00 0.13 0.07 90 1012.9
20260507090424 51 258 0.0 0.0 0.00 0.07 0.07 90 1011.8
20260507090004 51 327 0.0 0.9 0.00 0.13 0.07 90 1012.5
20260507085921 51 247 0.0 0.0 0.00 0.07 0.07 90 1011.7
20260507085503 51 323 0.0 0.9 0.00 0.13 0.07 90 1012.6
20260507085418 51 322 0.0 0.9 0.00 0.07 0.07 90 1011.7
20260507085003 51 0 0.0 0.0 0.00 0.13 0.07 90 1012.4
20260507084915 51 246 0.0 0.0 0.00 0.07 0.07 90 1011.6
20260507084503 51 0 0.0 0.0 0.00 0.13 0.07 90 1012.3
20260507084411 51 278 0.0 0.0 0.00 0.07 0.07 90 1011.9
20260507084003 51 0 0.0 0.0 0.00 0.13 0.07 90 1012.5
20260507083909 51 268 0.0 0.0 0.00 0.07 0.07 90 1011.7
20260507083503 51 303 0.0 1.7 0.00 0.13 0.07 90 1012.5
20260507083405 51 253 0.0 0.0 0.00 0.07 0.07 90 1011.8
20260507083003 51 286 0.0 1.7 0.00 0.13 0.07 90 1012.6
20260507082901 51 297 0.0 1.7 0.00 0.07 0.07 90 1011.4
20260507082503 51 231 0.0 0.9 0.00 0.13 0.07 90 1012.5
20260507082357 51 251 0.0 0.0 0.00 0.07 0.07 90 1011.6
20260507082003 51 267 0.0 0.9 0.00 0.13 0.07 90 1012.4
20260507081854 51 259 0.0 0.0 0.00 0.07 0.07 90 1011.6
20260507081503 51 254 0.0 0.9 0.00 0.13 0.07 90 1012.5
20260507081350 51 257 0.0 0.0 0.00 0.07 0.07 90 1011.6
20260507081003 51 251 0.0 0.9 0.00 0.13 0.07 90 1012.5
20260507080847 51 253 0.0 0.0 0.00 0.07 0.07 90 1011.7
20260507080524 51 254 0.0 0.9 0.00 0.13 0.07 90 1012.4
20260507080343 51 260 0.0 0.0 0.00 0.07 0.07 89 1011.7
20260507080004 51 262 0.0 0.9 0.00 0.13 0.07 89 1012.4
20260507075839 51 285 0.0 0.9 0.00 0.07 0.07 89 1011.7
20260507075503 51 219 0.0 1.7 0.00 0.13 0.07 89 1012.4
20260507075335 51 295 0.0 0.0 0.00 0.07 0.07 90 1011.6
20260507075003 51 211 0.0 1.7 0.00 0.13 0.07 90 1012.5
20260507074831 51 252 0.0 1.7 0.00 0.07 0.07 90 1011.8
20260507074503 51 255 0.0 1.7 0.00 0.13 0.07 90 1012.9
20260507074329 51 248 0.0 0.0 0.00 0.07 0.07 90 1011.9
20260507074024 51 311 0.0 3.5 0.00 0.13 0.07 90 1012.5
20260507073826 51 221 0.0 0.9 0.00 0.07 0.07 90 1011.6
20260507073503 51 333 0.0 3.5 0.00 0.13 0.07 90 1012.6
20260507073323 51 311 0.0 0.9 0.00 0.07 0.07 90 1011.4
20260507073003 51 264 0.0 1.7 0.00 0.13 0.07 91 1012.5
20260507072820 51 260 0.0 0.0 0.00 0.07 0.07 91 1012.0
20260507072503 51 249 0.0 2.6 0.00 0.13 0.07 91 1013.0
20260507072317 51 238 0.0 1.7 0.00 0.07 0.07 91 1011.9
20260507072003 52 247 0.9 5.2 0.00 0.13 0.07 91 1012.5
20260507071815 52 269 0.0 2.6 0.00 0.07 0.07 91 1011.8
20260507071503 52 262 0.0 5.2 0.00 0.13 0.07 91 1012.6
20260507071311 52 264 0.0 2.6 0.00 0.07 0.07 91 1011.7
20260507071003 53 257 0.0 1.7 0.00 0.13 0.07 91 1012.9
20260507070808 53 253 0.0 0.9 0.00 0.07 0.07 91 1012.0
20260507070503 53 250 0.0 1.7 0.00 0.13 0.07 91 1012.8
20260507070305 53 251 0.0 0.0 0.00 0.07 0.07 92 1012.2
20260507070006 53 34 0.0 0.9 0.01 0.13 0.07 92 1012.8
20260507065802 53 258 0.0 0.0 0.00 0.07 0.07 91 1011.8
20260507065524 53 325 0.0 0.9 0.01 0.13 0.07 92 1012.8
20260507065258 53 263 0.0 0.0 0.00 0.07 0.07 91 1012.1
20260507065003 53 281 0.0 0.9 0.01 0.13 0.07 91 1013.2
20260507064756 53 321 0.0 0.9 0.00 0.07 0.07 91 1012.2
20260507064503 54 255 0.9 2.6 0.01 0.13 0.07 91 1012.8
20260507064255 53 255 0.0 0.0 0.00 0.07 0.07 91 1012.2
20260507064003 53 254 0.9 2.6 0.01 0.13 0.07 91 1013.1
20260507063752 53 252 0.0 2.6 0.00 0.07 0.07 91 1012.2
20260507063503 54 248 0.0 1.7 0.01 0.13 0.07 91 1012.5
20260507063248 54 248 0.0 1.7 0.00 0.07 0.07 91 1011.8
20260507063003 53 253 0.0 0.9 0.02 0.13 0.07 91 1012.9
20260507062745 54 260 0.0 0.0 0.00 0.07 0.07 91 1011.7
20260507062503 54 253 0.0 0.9 0.02 0.13 0.07 91 1012.5
20260507062242 54 257 0.0 0.9 0.00 0.07 0.07 91 1011.5
20260507062003 54 246 0.0 1.7 0.07 0.13 0.07 91 1012.4
20260507061741 54 243 0.0 0.0 0.00 0.07 0.07 91 1011.3
20260507061503 54 250 0.9 3.5 0.07 0.13 0.07 91 1012.2
20260507061238 54 248 0.9 1.7 0.00 0.07 0.07 91 1011.5
20260507061024 54 257 0.9 5.2 0.07 0.13 0.07 91 1012.4
20260507060736 54 253 0.9 4.3 0.05 0.07 0.07 91 1011.8
20260507060503 54 259 0.9 5.2 0.07 0.13 0.07 91 1012.6
20260507060232 54 249 2.6 4.3 0.05 0.07 0.07 91 1011.7
20260507060003 55 252 0.9 3.5 0.06 0.12 0.06 91 1012.4
20260507055729 56 271 0.0 2.6 0.00 0.06 0.06 91 1011.6
20260507055503 56 258 0.9 2.6 0.06 0.12 0.06 91 1012.3
20260507055224 57 224 0.0 1.7 0.00 0.06 0.06 91 1012.2
20260507055003 57 259 0.9 3.5 0.06 0.12 0.06 91 1012.9
20260507054720 57 250 0.0 2.6 0.00 0.06 0.06 91 1012.0
20260507054503 57 259 0.0 3.5 0.06 0.12 0.06 91 1012.6
20260507054218 57 258 0.0 0.0 0.07 0.06 0.06 91 1011.6
20260507054003 57 264 0.0 1.7 0.06 0.12 0.06 90 1012.3
20260507053715 57 287 0.0 0.0 0.07 0.06 0.06 90 1011.1
20260507053503 57 263 0.0 3.5 0.06 0.12 0.06 90 1012.5
20260507053213 58 276 0.0 1.7 0.05 0.05 0.05 90 1011.3
20260507053024 58 276 0.9 3.5 0.05 0.11 0.05 89 1012.3
20260507052712 59 251 0.0 4.3 0.28 0.05 0.05 88 1011.8
20260507052503 59 265 1.7 5.2 0.05 0.11 0.05 88 1012.6
20260507052207 59 45 0.9 2.6 0.17 0.03 0.03 86 1010.9
20260507052003 59 260 0.9 5.2 0.00 0.06 0.00 85 1013.0
20260507051705 59 259 3.5 5.2 0.00 0.00 0.00 85 1011.7
20260507051504 59 228 0.0 3.5 0.00 0.06 0.00 85 1011.6
20260507051202 60 282 0.0 1.7 0.00 0.00 0.00 84 1010.6
20260507051003 60 235 0.0 3.5 0.00 0.06 0.00 84 1011.5
20260507050659 60 257 0.0 0.0 0.00 0.00 0.00 84 1011.0
20260507050503 60 255 0.0 1.7 0.00 0.06 0.00 83 1011.7
20260507050156 60 256 0.0 0.0 0.00 0.00 0.00 83 1011.1
20260507050003 60 252 0.0 2.6 0.00 0.06 0.00 83 1011.5
20260507045653 60 247 0.0 0.9 0.00 0.00 0.00 82 1011.2
20260507045503 60 249 0.9 2.6 0.00 0.06 0.00 82 1011.7
20260507045149 60 255 0.9 2.6 0.00 0.00 0.00 82 1010.9
20260507045003 60 249 0.9 2.6 0.00 0.06 0.00 82 1011.4
20260507044646 60 254 0.9 1.7 0.00 0.00 0.00 83 1010.8
20260507044503 60 257 0.9 3.5 0.00 0.06 0.00 83 1011.9
20260507044142 60 252 0.0 1.7 0.00 0.00 0.00 84 1010.8
20260507044003 60 256 0.9 3.5 0.00 0.06 0.00 84 1011.6
20260507043638 61 125 0.0 0.9 0.00 0.00 0.00 86 1010.7
20260507043524 61 204 0.0 2.6 0.00 0.06 0.00 86 1011.3
20260507043136 62 257 0.0 2.6 0.00 0.00 0.00 86 1010.4
20260507043003 62 236 0.9 5.2 0.00 0.06 0.00 86 1011.1
20260507042632 62 253 0.0 0.9 0.00 0.00 0.00 85 1010.3
20260507042524 62 242 0.9 5.2 0.00 0.06 0.00 85 1011.0
20260507042127 62 273 0.0 1.7 0.00 0.00 0.00 85 1010.6
20260507042024 62 252 0.9 2.6 0.00 0.06 0.00 85 1011.2
20260507041624 62 226 0.0 0.9 0.00 0.00 0.00 85 1010.4
20260507041503 62 257 0.9 3.5 0.00 0.06 0.00 85 1011.2
20260507041121 62 254 0.9 2.6 0.00 0.00 0.00 84 1010.6
20260507041003 62 254 1.7 5.2 0.00 0.06 0.00 84 1011.2
20260507040618 62 241 1.7 4.3 0.00 0.00 0.00 84 1010.2
20260507040503 62 255 1.7 5.2 0.00 0.06 0.00 84 1011.1
20260507040114 62 255 0.9 4.3 0.00 0.00 0.00 84 1010.1
20260507040004 62 257 1.7 5.2 0.00 0.06 0.00 84 1011.0
20260507035610 62 255 0.9 2.6 0.00 0.06 0.06 84 1010.3
20260507035503 62 255 1.7 5.2 0.00 0.06 0.06 84 1011.0
20260507035107 63 256 0.9 1.7 0.00 0.06 0.06 83 1010.4
20260507035003 63 252 1.7 3.5 0.00 0.06 0.06 83 1011.3
20260507034604 63 242 0.9 1.7 0.00 0.06 0.06 83 1010.4
20260507034503 63 255 1.7 3.5 0.00 0.06 0.06 83 1011.1
20260507034102 63 247 1.7 4.3 0.00 0.06 0.06 82 1010.4
20260507034003 63 254 1.7 3.5 0.00 0.06 0.06 82 1011.2
20260507033559 63 265 2.6 4.3 0.00 0.06 0.06 81 1010.2
20260507033503 63 251 0.9 5.2 0.00 0.06 0.06 81 1011.1
20260507033056 64 269 0.9 5.2 0.00 0.06 0.06 81 1010.4
20260507033003 64 249 0.9 6.1 0.00 0.06 0.06 81 1011.4
20260507032553 64 262 0.9 2.6 0.00 0.06 0.06 81 1010.6
20260507032503 64 251 0.9 6.1 0.00 0.06 0.06 81 1011.3
20260507032049 64 267 0.0 0.0 0.00 0.06 0.06 81 1010.5
20260507032003 64 266 1.7 6.1 0.00 0.06 0.06 81 1011.4
20260507031546 64 258 3.5 4.3 0.00 0.06 0.06 80 1010.3
20260507031524 64 261 1.7 6.1 0.00 0.06 0.06 80 1011.4
20260507031043 64 282 3.5 6.1 0.00 0.06 0.06 80 1010.6
20260507031003 64 253 1.7 6.1 0.00 0.06 0.06 80 1011.1
20260507030539 64 232 0.9 4.3 0.00 0.06 0.06 80 1009.9
20260507030503 64 255 1.7 6.1 0.00 0.06 0.06 80 1010.8
20260507030037 64 251 2.6 2.6 0.00 0.06 0.06 80 1010.1
20260507030003 64 257 1.7 9.6 0.00 0.06 0.06 80 1010.7
20260507025534 64 248 0.9 5.2 0.00 0.06 0.06 80 1010.1
20260507025503 64 252 1.7 9.6 0.00 0.06 0.06 80 1010.9